Location: Old Broadwell Mill Observatory
(33.8015°N, 85.8137°W)
Time: 02:24:19
(UTC-06:00)

Daily predictions for brighter satellites

Satellite Brightness Start Highest point End
(mag) Time Altitude Azimuth Time Altitude Azimuth Time Altitude Azimuth
Cosmos 2297 Rocket 4.5 03:09:40 18° ESE 03:09:40 18° ESE 03:11:18 10° SE
Okean O Rocket 4.4 03:31:48 10° NNE 03:32:14 12° NNE 03:32:14 12° NNE
Cosmos 1821 Rocket 4.5 03:40:17 48° SE 03:41:24 55° E 03:47:26 10° NNE
CENTAUR R/B 3.0 03:55:36 63° NW 03:57:06 77° WSW 04:05:36 10° SSE
Cosmos 1980 Rocket 2.8 03:55:52 42° SSE 03:57:18 53° ESE 04:02:48 10° NNE
Meteor 2-10 Rocket 3.9 03:58:36 57° E 03:58:36 57° E 04:03:17 10° NNE
CZ-3 R/B 3.2 03:59:18 41° WSW 04:07:33 70° S 04:14:49 10° ESE
Intelsat 5-3 Rocket 4.5 04:08:24 27° S 04:08:36 27° S 04:15:41 10° ESE
USA 215 4.0 04:04:26 10° SSE 04:08:50 36° SSW 04:08:50 36° SSW
ATLAS 5 CENTAUR R/B 3.7 04:09:57 11° SSE 04:13:15 24° ESE 04:16:59 10° ENE
Cosmos 1000 Rocket 4.3 04:09:51 10° N 04:16:06 85° W 04:22:16 10° S
Cosmos 2239 Rocket 4.3 04:15:59 53° SSW 04:17:28 74° W 04:23:37 10° N
Centaur D-1AR AC-36 3.9 04:19:14 11° SSE 04:19:14 11° SSE 04:20:02 10° SSE
SEDSat Delta rocket 3.4 04:19:40 60° SSE 04:19:40 60° SSE 04:23:48 10° E
Aureole 1 Rocket 4.0 04:14:34 10° NNW 04:21:50 78° ENE 04:27:19 10° SSE
Hubble Space Telescope 2.2 04:22:37 30° SSE 04:22:37 30° SSE 04:25:51 10° ESE
Cosmos 1605 Rocket 4.4 04:20:46 10° S 04:26:48 63° E 04:32:49 10° NNE
Cosmos 1697 Rocket 3.2 04:28:51 40° NW 04:28:51 40° NW 04:33:15 10° N
SJ 16-02 1.3 04:28:22 62° S 04:29:04 84° ESE 04:33:30 10° NNE
Okean-O 4.2 04:26:36 10° NNE 04:30:40 35° E 04:34:43 10° SSE
SL-16 R/B 4.0 04:25:48 10° SSE 04:30:41 31° ESE 04:35:36 10° NE
COSMO-SKYMED 1 4.0 04:32:20 10° SE 04:36:19 37° ENE 04:40:19 10° N
Cosmos 2227 Rocket 3.6 04:39:18 21° SSW 04:39:18 21° SSW 04:41:23 10° SSW
Lacrosse 5 rocket 1.8 04:46:15 27° NNW 04:48:11 55° NE 04:52:13 10° SE
Cosmos 2297 Rocket 3.2 04:51:36 27° SW 04:51:36 27° SW 04:55:03 10° SSW
CZ-2C R/B 3.3 04:45:31 10° NNE 04:50:31 53° E 04:55:33 10° S
Cosmos 405 4.5 04:49:08 10° N 04:52:31 39° E 04:55:52 10° SSE
NOAA 6 4.0 04:47:44 10° NNE 04:52:55 86° ESE 04:58:03 10° SSW
Cosmos 1869 Rocket 3.9 04:54:39 10° NNW 04:58:48 39° W 05:02:57 10° SSW
CZ-4B R/B 3.8 04:54:34 10° N 04:59:24 33° WNW 05:01:25 26° WSW
Cosmos 1707 Rocket 4.1 04:59:47 33° WSW 05:00:31 36° W 05:04:40 10° NNW
ASTRO E2 3.6 05:03:46 28° SW 05:05:00 36° SSW 05:08:42 10° SE
IDEFIX/ARIANE 42P 2.4 04:59:48 10° N 05:05:01 75° WNW 05:10:11 10° SSW
Cosmos 1934 Rocket 4.4 04:59:49 10° SSW 05:05:41 40° W 05:11:38 10° N
PAYLOAD A 3.8 05:01:01 10° N 05:05:48 74° WNW 05:10:45 10° SSW
Milstar 3 Cent rocket 4.4 05:02:10 10° SSW 05:07:17 30° SSE 05:15:38 10° E
Okean O Rocket 3.8 05:09:28 10° NNW 05:09:42 11° NW 05:09:42 11° NW
Cosmos 405 Rocket 2.6 05:09:08 10° SSW 05:13:07 74° W 05:17:03 10° N
Aureole 3 4.3 05:14:38 10° NNE 05:17:24 37° E 05:20:23 10° SSE
Cosmos 2123 Rocket 4.2 05:12:52 10° NNW 05:18:44 45° W 05:24:37 10° SSW
Cosmos 2263 Rocket 3.9 05:14:57 10° N 05:20:04 34° ENE 05:25:09 10° SE
Cosmos 158 Rocket 4.2 05:15:23 10° NNW 05:20:14 47° WSW 05:25:12 10° S
Cosmos 1048 Rocket 3.9 05:18:05 10° NNW 05:23:12 72° WSW 05:28:16 10° S
OAO 3 Rocket 3.6 05:20:32 19° W 05:23:52 53° SSW 05:28:41 10° SE
SKYMED 2 3.6 05:20:01 10° S 05:24:15 55° W 05:28:31 10° NNW
Radarsat Rocket 3.9 05:19:53 10° N 05:25:43 70° WNW 05:31:56 10° SSW
Cosmos 2322 Rocket 2.2 05:23:52 10° SSW 05:29:32 79° WNW 05:35:15 10° NNE
Cosmos 2242 Rocket 4.0 05:27:22 10° SSW 05:31:42 43° W 05:36:04 10° N
MSX 3.8 05:28:22 10° N 05:34:05 67° WNW 05:39:48 10° SSW
EO 1 Del DPAF 3.2 05:30:22 10° SSE 05:34:11 89° WSW 05:38:01 10° NNW
Cosmos 1125 Rocket 4.5 05:31:18 10° WSW 05:35:33 25° WNW 05:39:51 10° N
Cosmos 2360 Rocket 3.4 05:33:49 10° S 05:39:13 48° ESE 05:44:40 10° NNE
Cosmos 2227 4.2 05:33:58 10° NNW 05:39:32 65° WSW 05:45:04 10° S
Cosmos 1980 Rocket 3.5 05:37:44 10° WSW 05:41:35 19° WNW 05:45:33 10° NNW
Landsat 4 3.9 05:40:07 10° S 05:43:41 46° W 05:47:18 10° NNW
SJ-12 4.0 05:40:34 10° N 05:44:38 58° WNW 05:48:41 10° SSW
Cosmos 1703 Rocket 3.9 05:40:54 10° S 05:45:21 75° E 05:49:50 10° N
Cosmos 1633 2.6 05:42:24 10° N 05:46:03 86° E 05:49:41 10° S
Aureole 2 Rocket 3.6 05:43:52 10° S 05:46:24 36° ESE 05:48:55 10° NE
COSMOS 2455 2.9 05:42:49 10° NNW 05:48:48 64° WSW 05:54:42 10° SSE
ISS -0.5 05:49:14 10° SSE 05:50:41 12° SE 05:52:08 10° E
CZ-4 R/B 3.2 05:47:31 10° NNE 05:51:03 35° E 05:54:36 10° SSE
Cosmos 1782 2.8 05:50:32 10° SSW 05:54:32 66° W 05:58:33 10° N
